| time (UTC) | temp F | wind direction | speed knots | gust knots | rain 1hr in | rain 24hr in | rain mn in | humidity % | barometer mb |
| 20260508023043 | 54 | 278 | 7.0 | 9.6 | 0.00 | 0.00 | 0.00 | 92 | 1011.9 |
| 20260508021544 | 54 | 257 | 7.0 | 8.7 | 0.00 | 0.00 | 0.00 | 91 | 1012.1 |
| 20260508020046 | 54 | 265 | 7.0 | 9.6 | 0.00 | 0.00 | 0.00 | 91 | 1012.1 |
| 20260508014540 | 54 | 255 | 6.1 | 8.7 | 0.00 | 0.00 | 0.00 | 91 | 1012.2 |
| 20260508013053 | 54 | 262 | 6.1 | 8.7 | 0.00 | 0.00 | 0.00 | 91 | 1012.2 |
| 20260508011544 | 54 | 245 | 6.1 | 9.6 | 0.00 | 0.00 | 0.00 | 91 | 1012.2 |
| 20260508010038 | 54 | 246 | 6.1 | 8.7 | 0.00 | 0.00 | 0.00 | 91 | 1012.2 |
| 20260508004538 | 54 | 292 | 5.2 | 8.7 | 0.00 | 0.00 | 0.00 | 91 | 1012.4 |
| 20260508003036 | 54 | 261 | 5.2 | 8.7 | 0.00 | 0.00 | 0.00 | 91 | 1012.6 |
| 20260508001601 | 54 | 267 | 7.0 | 9.6 | 0.00 | 0.00 | 0.00 | 91 | 1012.6 |
| 20260508000047 | 54 | 238 | 6.1 | 9.6 | 0.00 | 0.00 | 0.00 | 91 | 1012.8 |
| 20260507234538 | 54 | 259 | 6.1 | 8.7 | 0.00 | 0.00 | 0.00 | 91 | 1012.8 |
| 20260507233040 | 54 | 257 | 6.1 | 9.6 | 0.00 | 0.00 | 0.00 | 91 | 1013.2 |
| 20260507231537 | 54 | 274 | 5.2 | 10.4 | 0.00 | 0.00 | 0.00 | 91 | 1013.4 |
| 20260507230041 | 54 | 270 | 6.1 | 9.6 | 0.00 | 0.00 | 0.00 | 91 | 1013.7 |
| 20260507224544 | 54 | 255 | 7.0 | 9.6 | 0.00 | 0.00 | 0.00 | 90 | 1013.7 |
| 20260507223038 | 54 | 259 | 6.1 | 9.6 | 0.00 | 0.00 | 0.00 | 90 | 1013.6 |
| 20260507221537 | 55 | 246 | 5.2 | 7.8 | 0.00 | 0.00 | 0.00 | 90 | 1013.5 |
| 20260507220048 | 55 | 244 | 5.2 | 7.8 | 0.00 | 0.00 | 0.00 | 90 | 1013.6 |
| 20260507214541 | 55 | 263 | 5.2 | 8.7 | 0.00 | 0.00 | 0.00 | 89 | 1013.6 |
| 20260507213040 | 55 | 275 | 5.2 | 8.7 | 0.00 | 0.00 | 0.00 | 89 | 1013.6 |
| 20260507211538 | 56 | 257 | 5.2 | 8.7 | 0.00 | 0.00 | 0.00 | 89 | 1013.5 |
| 20260507210041 | 56 | 254 | 5.2 | 7.8 | 0.00 | 0.00 | 0.00 | 89 | 1013.6 |
| 20260507204545 | 56 | 257 | 4.3 | 7.8 | 0.00 | 0.00 | 0.00 | 88 | 1013.5 |
| 20260507203036 | 57 | 263 | 4.3 | 7.8 | 0.00 | 0.00 | 0.00 | 88 | 1013.5 |
| 20260507201542 | 57 | 281 | 4.3 | 7.8 | 0.00 | 0.00 | 0.00 | 87 | 1013.4 |
| 20260507200041 | 58 | 265 | 4.3 | 7.8 | 0.00 | 0.00 | 0.00 | 87 | 1013.5 |
| 20260507194540 | 58 | 263 | 2.6 | 6.1 | 0.00 | 0.00 | 0.00 | 86 | 1013.3 |
| 20260507193036 | 58 | 265 | 4.3 | 7.0 | 0.00 | 0.00 | 0.00 | 85 | 1013.3 |
| 20260507191550 | 59 | 260 | 4.3 | 7.0 | 0.00 | 0.00 | 0.00 | 84 | 1013.1 |
| 20260507190040 | 60 | 266 | 3.5 | 6.1 | 0.00 | 0.00 | 0.00 | 82 | 1013.1 |
| 20260507184538 | 62 | 277 | 1.7 | 5.2 | 0.00 | 0.00 | 0.00 | 81 | 1013.0 |
| 20260507183043 | 64 | 0 | 0.0 | 1.7 | 0.00 | 0.00 | 0.00 | 80 | 1013.1 |
| 20260507181541 | 64 | 0 | 0.0 | 2.6 | 0.00 | 0.00 | 0.00 | 80 | 1013.1 |
| 20260507180037 | 64 | 193 | 0.9 | 3.5 | 0.00 | 0.00 | 0.00 | 80 | 1013.2 |
| 20260507174547 | 64 | 155 | 2.6 | 7.0 | 0.00 | 0.00 | 0.00 | 80 | 1013.3 |
| 20260507173040 | 64 | 186 | 5.2 | 8.7 | 0.00 | 0.00 | 0.00 | 79 | 1013.3 |
| 20260507171539 | 65 | 143 | 3.5 | 6.1 | 0.00 | 0.00 | 0.00 | 80 | 1013.3 |
| 20260507170046 | 64 | 139 | 3.5 | 5.2 | 0.00 | 0.00 | 0.00 | 79 | 1013.4 |
| 20260507164542 | 64 | 128 | 2.6 | 5.2 | 0.00 | 0.00 | 0.00 | 79 | 1013.4 |
| 20260507163043 | 64 | 138 | 2.6 | 5.2 | 0.00 | 0.00 | 0.00 | 79 | 1013.3 |
| 20260507161541 | 64 | 134 | 3.5 | 4.3 | 0.00 | 0.00 | 0.00 | 78 | 1013.3 |
| 20260507160040 | 64 | 132 | 3.5 | 6.1 | 0.00 | 0.00 | 0.00 | 78 | 1013.5 |
| 20260507154546 | 64 | 134 | 4.3 | 7.0 | 0.00 | 0.00 | 0.00 | 78 | 1013.5 |
| 20260507153046 | 65 | 136 | 4.3 | 7.8 | 0.00 | 0.00 | 0.00 | 77 | 1013.6 |
| 20260507151535 | 64 | 138 | 6.1 | 7.8 | 0.00 | 0.00 | 0.00 | 77 | 1013.4 |
| 20260507150043 | 64 | 137 | 6.1 | 9.6 | 0.00 | 0.00 | 0.00 | 77 | 1013.6 |
| 20260507144539 | 65 | 135 | 7.0 | 9.6 | 0.00 | 0.00 | 0.00 | 77 | 1013.5 |
| 20260507143045 | 65 | 134 | 6.1 | 8.7 | 0.00 | 0.00 | 0.00 | 77 | 1013.6 |
| 20260507141537 | 65 | 135 | 7.8 | 8.7 | 0.00 | 0.00 | 0.00 | 76 | 1013.7 |
| 20260507140043 | 64 | 140 | 7.0 | 9.6 | 0.00 | 0.00 | 0.00 | 77 | 1013.9 |
| 20260507134544 | 65 | 151 | 6.1 | 9.6 | 0.00 | 0.00 | 0.00 | 76 | 1014.0 |
| 20260507133041 | 64 | 134 | 7.0 | 8.7 | 0.00 | 0.00 | 0.00 | 77 | 1014.4 |
| 20260507131553 | 64 | 155 | 6.1 | 8.7 | 0.00 | 0.00 | 0.00 | 77 | 1014.4 |
| 20260507130055 | 64 | 142 | 7.0 | 8.7 | 0.00 | 0.00 | 0.00 | 76 | 1014.4 |
| 20260507124547 | 63 | 136 | 7.0 | 9.6 | 0.00 | 0.00 | 0.00 | 78 | 1014.5 |
| 20260507123037 | 63 | 132 | 7.0 | 10.4 | 0.00 | 0.00 | 0.00 | 78 | 1014.5 |
| 20260507121543 | 63 | 119 | 7.0 | 8.7 | 0.00 | 0.00 | 0.00 | 78 | 1014.6 |
| 20260507120045 | 64 | 132 | 5.2 | 7.0 | 0.00 | 0.00 | 0.00 | 78 | 1014.5 |
| 20260507114543 | 64 | 132 | 4.3 | 7.0 | 0.00 | 0.01 | 0.00 | 78 | 1014.3 |
| 20260507113042 | 64 | 150 | 4.3 | 7.0 | 0.00 | 0.01 | 0.00 | 79 | 1014.5 |
| 20260507111537 | 63 | 148 | 5.2 | 8.7 | 0.00 | 0.01 | 0.00 | 81 | 1014.6 |
| 20260507110036 | 63 | 130 | 6.1 | 9.6 | 0.00 | 0.01 | 0.00 | 81 | 1014.6 |
| 20260507104543 | 63 | 126 | 7.8 | 11.3 | 0.00 | 0.01 | 0.00 | 81 | 1014.7 |
| 20260507103043 | 63 | 124 | 9.6 | 11.3 | 0.00 | 0.01 | 0.00 | 81 | 1014.7 |
| 20260507101540 | 64 | 134 | 8.7 | 12.2 | 0.00 | 0.01 | 0.00 | 80 | 1014.7 |
| 20260507100041 | 64 | 149 | 8.7 | 13.0 | 0.00 | 0.01 | 0.00 | 80 | 1014.8 |
| 20260507094538 | 63 | 142 | 11.3 | 14.8 | 0.00 | 0.01 | 0.00 | 79 | 1014.5 |
| 20260507093049 | 64 | 140 | 10.4 | 13.9 | 0.00 | 0.01 | 0.00 | 79 | 1014.5 |
| 20260507091549 | 63 | 135 | 10.4 | 12.2 | 0.00 | 0.01 | 0.00 | 78 | 1014.4 |
| 20260507090040 | 64 | 121 | 8.7 | 11.3 | 0.00 | 0.01 | 0.00 | 75 | 1014.1 |
| 20260507084539 | 64 | 175 | 4.3 | 7.8 | 0.00 | 0.01 | 0.00 | 74 | 1013.9 |
| 20260507083036 | 65 | 165 | 4.3 | 7.8 | 0.00 | 0.01 | 0.00 | 74 | 1013.8 |
| 20260507081544 | 64 | 100 | 1.7 | 3.5 | 0.00 | 0.01 | 0.00 | 70 | 1013.9 |
| 20260507080044 | 64 | 98 | 2.6 | 5.2 | 0.00 | 0.01 | 0.00 | 69 | 1014.0 |
| 20260507074557 | 64 | 102 | 2.6 | 4.3 | 0.00 | 0.01 | 0.00 | 68 | 1014.2 |
| 20260507073036 | 64 | 148 | 1.7 | 3.5 | 0.00 | 0.01 | 0.00 | 65 | 1014.4 |
| 20260507071543 | 64 | 76 | 1.7 | 6.1 | 0.00 | 0.01 | 0.00 | 64 | 1014.3 |
| 20260507070043 | 64 | 85 | 2.6 | 5.2 | 0.00 | 0.01 | 0.00 | 65 | 1014.3 |
| 20260507064540 | 64 | 109 | 6.1 | 8.7 | 0.00 | 0.01 | 0.00 | 65 | 1013.9 |
| 20260507063039 | 65 | 245 | 0.9 | 6.1 | 0.00 | 0.01 | 0.00 | 62 | 1013.8 |
| 20260507061538 | 64 | 236 | 0.9 | 6.1 | 0.00 | 0.01 | 0.00 | 65 | 1013.7 |
| 20260507060039 | 63 | 257 | 3.5 | 7.8 | 0.00 | 0.01 | 0.00 | 68 | 1013.7 |
| 20260507054542 | 62 | 213 | 0.0 | 3.5 | 0.00 | 0.01 | 0.00 | 70 | 1013.5 |
| 20260507053043 | 61 | 261 | 1.7 | 7.8 | 0.00 | 0.01 | 0.00 | 72 | 1013.2 |
| 20260507051542 | 61 | 286 | 2.6 | 11.3 | 0.00 | 0.01 | 0.00 | 71 | 1013.0 |
| 20260507050039 | 59 | 315 | 7.0 | 12.2 | 0.00 | 0.01 | 0.00 | 77 | 1012.7 |
| 20260507044544 | 56 | 199 | 3.5 | 7.8 | 0.00 | 0.01 | 0.00 | 79 | 1012.5 |
| 20260507043036 | 55 | 259 | 7.0 | 9.6 | 0.00 | 0.01 | 0.00 | 78 | 1012.5 |
| 20260507041540 | 56 | 289 | 3.5 | 6.1 | 0.00 | 0.01 | 0.00 | 78 | 1012.4 |
| 20260507040045 | 55 | 269 | 4.3 | 6.1 | 0.00 | 0.01 | 0.00 | 78 | 1012.6 |
| 20260507034542 | 56 | 225 | 0.9 | 7.8 | 0.00 | 0.01 | 0.00 | 77 | 1012.5 |
| 20260507033042 | 56 | 275 | 3.5 | 6.1 | 0.00 | 0.01 | 0.00 | 76 | 1012.4 |
| 20260507031546 | 57 | 266 | 2.6 | 9.6 | 0.00 | 0.01 | 0.00 | 75 | 1012.5 |
| 20260507030047 | 57 | 273 | 2.6 | 8.7 | 0.00 | 0.01 | 0.00 | 74 | 1012.7 |
| 20260507024544 | 59 | 215 | 4.3 | 8.7 | 0.00 | 0.01 | 0.00 | 69 | 1012.6 |